Stündliche Wetter Aberen

Heute, 23 Juni, Mittwoch

Zeit Temperatur Niederschläge Wind Luftdruck Luftfeuchtigkeit
00:00 +15°C° 0.1 mm 0 m/S 714 mmHg 95%
01:00 +16°C° 0 mm 1 m/S 714 mmHg 96%
02:00 +16°C° 0.4 mm 1 m/S 714 mmHg 96%
03:00 +15°C° 0.4 mm 1 m/S 714 mmHg 97%
04:00 +15°C° 0.4 mm 1 m/S 714 mmHg 97%
05:00 +16°C° 0 mm 1 m/S 714 mmHg 95%
06:00 +16°C° 0 mm 1 m/S 714 mmHg 94%
07:00 +18°C° 0 mm 1 m/S 714 mmHg 92%
08:00 +19°C° 0.1 mm 1 m/S 715 mmHg 83%
09:00 +21°C° 0.1 mm 1 m/S 715 mmHg 75%
10:00 +21°C° 0.1 mm 2 m/S 715 mmHg 67%
11:00 +23°C° 0.2 mm 2 m/S 715 mmHg 63%
12:00 +24°C° 0.2 mm 2 m/S 714 mmHg 59%
13:00 +25°C° 0.2 mm 3 m/S 714 mmHg 55%
14:00 +25°C° 0.2 mm 3 m/S 714 mmHg 57%
15:00 +25°C° 0.2 mm 2 m/S 714 mmHg 59%
16:00 +25°C° 0.2 mm 2 m/S 714 mmHg 62%
17:00 +23°C° 1.6 mm 2 m/S 714 mmHg 70%
18:00 +21°C° 1.6 mm 2 m/S 713 mmHg 79%
19:00 +19°C° 1.6 mm 2 m/S 713 mmHg 88%
20:00 +18°C° 2.4 mm 2 m/S 714 mmHg 91%
21:00 +17°C° 2.4 mm 2 m/S 715 mmHg 93%
22:00 +16°C° 2.4 mm 1 m/S 716 mmHg 96%
23:00 +15°C° 0.3 mm 1 m/S 716 mmHg 96%

Morgen, 24 Juni, Donnerstag

Zeit Temperatur Niederschläge Wind Luftdruck Luftfeuchtigkeit
00:00 +15°C° 0.3 mm 1 m/S 716 mmHg 96%
01:00 +15°C° 0.3 mm 1 m/S 716 mmHg 96%
02:00 +14°C° 0 mm 1 m/S 715 mmHg 95%
03:00 +14°C° 0 mm 1 m/S 715 mmHg 94%
04:00 +13°C° 0 mm 1 m/S 715 mmHg 94%
05:00 +15°C° 0 mm 1 m/S 715 mmHg 92%
06:00 +15°C° 0 mm 0 m/S 715 mmHg 91%
07:00 +16°C° 0 mm 0 m/S 715 mmHg 89%
08:00 +17°C° 0 mm 0 m/S 715 mmHg 82%
09:00 +21°C° 0 mm 1 m/S 715 mmHg 74%
10:00 +22°C° 0 mm 1 m/S 715 mmHg 67%
11:00 +23°C° 0.5 mm 1 m/S 715 mmHg 69%
12:00 +23°C° 0.5 mm 2 m/S 714 mmHg 70%
13:00 +23°C° 0.5 mm 2 m/S 714 mmHg 72%
14:00 +21°C° 2.1 mm 2 m/S 714 mmHg 79%
15:00 +19°C° 2.1 mm 3 m/S 715 mmHg 87%
16:00 +17°C° 2.1 mm 3 m/S 715 mmHg 94%
17:00 +16°C° 1 mm 3 m/S 715 mmHg 94%
18:00 +16°C° 1 mm 3 m/S 716 mmHg 95%
19:00 +15°C° 1 mm 2 m/S 716 mmHg 95%
20:00 +15°C° 0.2 mm 2 m/S 716 mmHg 94%
21:00 +14°C° 0.2 mm 1 m/S 717 mmHg 94%
22:00 +14°C° 0.2 mm 1 m/S 717 mmHg 93%
23:00 +13°C° 0 mm 1 m/S 717 mmHg 93%

übermorgen, 25 Juni, Freitag

Zeit Temperatur Niederschläge Wind Luftdruck Luftfeuchtigkeit
00:00 +13°C° 0 mm 1 m/S 716 mmHg 93%
01:00 +13°C° 0 mm 1 m/S 716 mmHg 93%
02:00 +13°C° 0 mm 1 m/S 716 mmHg 93%
03:00 +12°C° 0 mm 1 m/S 716 mmHg 94%
04:00 +12°C° 0 mm 1 m/S 716 mmHg 94%
05:00 +13°C° 0 mm 1 m/S 716 mmHg 92%
06:00 +14°C° 0 mm 1 m/S 716 mmHg 91%
07:00 +15°C° 0 mm 1 m/S 717 mmHg 89%
08:00 +15°C° 0 mm 1 m/S 717 mmHg 84%
09:00 +16°C° 0 mm 2 m/S 717 mmHg 78%
10:00 +17°C° 0 mm 2 m/S 717 mmHg 73%
11:00 +18°C° 0.1 mm 2 m/S 717 mmHg 70%
12:00 +19°C° 0.1 mm 2 m/S 716 mmHg 67%
13:00 +20°C° 0.1 mm 2 m/S 716 mmHg 64%
14:00 +20°C° 0.3 mm 2 m/S 716 mmHg 68%
15:00 +19°C° 0.3 mm 2 m/S 716 mmHg 71%
16:00 +20°C° 0.3 mm 1 m/S 716 mmHg 75%
17:00 +20°C° 0.5 mm 1 m/S 716 mmHg 80%
18:00 +19°C° 0.5 mm 1 m/S 716 mmHg 85%
19:00 +16°C° 0.5 mm 0 m/S 716 mmHg 90%
20:00 +15°C° 0.1 mm 0 m/S 716 mmHg 91%
21:00 +14°C° 0.1 mm 0 m/S 716 mmHg 92%
22:00 +14°C° 0.1 mm 1 m/S 716 mmHg 93%
23:00 +13°C° 0 mm 1 m/S 716 mmHg 94%

26 Juni, Samstag

Zeit Temperatur Niederschläge Wind Luftdruck Luftfeuchtigkeit
00:00 +13°C° 0 mm 1 m/S 716 mmHg 94%
01:00 +12°C° 0 mm 1 m/S 716 mmHg 94%
02:00 +12°C° 0 mm 1 m/S 716 mmHg 94%
03:00 +12°C° 0 mm 1 m/S 715 mmHg 94%
04:00 +11°C° 0 mm 1 m/S 715 mmHg 94%
05:00 +13°C° 0 mm 1 m/S 715 mmHg 92%
06:00 +13°C° 0 mm 0 m/S 715 mmHg 90%
07:00 +14°C° 0 mm 0 m/S 715 mmHg 89%
08:00 +16°C° 0 mm 0 m/S 715 mmHg 80%
09:00 +20°C° 0 mm 1 m/S 715 mmHg 71%
10:00 +22°C° 0 mm 1 m/S 715 mmHg 62%
11:00 +23°C° 0 mm 1 m/S 715 mmHg 59%
12:00 +24°C° 0 mm 2 m/S 715 mmHg 56%
13:00 +25°C° 0 mm 2 m/S 715 mmHg 52%
14:00 +26°C° 0.1 mm 2 m/S 715 mmHg 53%
15:00 +26°C° 0.1 mm 1 m/S 715 mmHg 53%
16:00 +26°C° 0.1 mm 1 m/S 715 mmHg 53%
17:00 +25°C° 0.1 mm 1 m/S 715 mmHg 61%
18:00 +24°C° 0.1 mm 1 m/S 715 mmHg 69%
19:00 +23°C° 0.1 mm 1 m/S 715 mmHg 77%
20:00 +21°C° 0.1 mm 1 m/S 715 mmHg 81%
21:00 +19°C° 0.1 mm 1 m/S 715 mmHg 85%
22:00 +18°C° 0.1 mm 1 m/S 715 mmHg 90%
23:00 +16°C° 0 mm 1 m/S 715 mmHg 89%

27 Juni, Sonntag

Zeit Temperatur Niederschläge Wind Luftdruck Luftfeuchtigkeit
00:00 +16°C° 0 mm 1 m/S 715 mmHg 89%
01:00 +16°C° 0 mm 1 m/S 714 mmHg 88%
02:00 +15°C° 0 mm 1 m/S 714 mmHg 88%
03:00 +15°C° 0 mm 1 m/S 714 mmHg 87%
04:00 +15°C° 0 mm 1 m/S 714 mmHg 87%
05:00 +16°C° 0 mm 1 m/S 714 mmHg 83%
06:00 +19°C° 0 mm 1 m/S 714 mmHg 80%
07:00 +20°C° 0 mm 1 m/S 714 mmHg 76%
08:00 +22°C° 0 mm 1 m/S 714 mmHg 69%
09:00 +24°C° 0 mm 1 m/S 714 mmHg 62%
10:00 +26°C° 0 mm 1 m/S 714 mmHg 55%
11:00 +27°C° 0 mm 1 m/S 714 mmHg 53%
12:00 +28°C° 0 mm 1 m/S 714 mmHg 51%
13:00 +29°C° 0 mm 2 m/S 714 mmHg 49%
14:00 +29°C° 0.1 mm 2 m/S 714 mmHg 50%
15:00 +29°C° 0.1 mm 1 m/S 714 mmHg 51%
16:00 +29°C° 0.1 mm 1 m/S 714 mmHg 51%
17:00 +27°C° 0.5 mm 1 m/S 714 mmHg 63%
18:00 +25°C° 0.5 mm 1 m/S 714 mmHg 74%
19:00 +23°C° 0.5 mm 1 m/S 714 mmHg 86%
20:00 +22°C° 1.3 mm 1 m/S 714 mmHg 89%
21:00 +20°C° 1.3 mm 1 m/S 715 mmHg 91%
22:00 +19°C° 1.3 mm 1 m/S 715 mmHg 94%
23:00 +19°C° 0.3 mm 1 m/S 715 mmHg 95%

28 Juni, Montag

Zeit Temperatur Niederschläge Wind Luftdruck Luftfeuchtigkeit
00:00 +18°C° 0.3 mm 1 m/S 715 mmHg 95%
01:00 +16°C° 0.3 mm 0 m/S 715 mmHg 96%
02:00 +18°C° 0 mm 1 m/S 715 mmHg 96%
03:00 +18°C° 0 mm 1 m/S 714 mmHg 95%
04:00 +18°C° 0 mm 1 m/S 714 mmHg 95%
05:00 +18°C° 0 mm 1 m/S 714 mmHg 94%
06:00 +17°C° 0 mm 0 m/S 715 mmHg 92%
07:00 +18°C° 0 mm 0 m/S 715 mmHg 91%
08:00 +21°C° 0 mm 1 m/S 715 mmHg 86%
09:00 +22°C° 0 mm 1 m/S 715 mmHg 82%
10:00 +23°C° 0 mm 1 m/S 715 mmHg 77%
11:00 +24°C° 0.1 mm 1 m/S 714 mmHg 74%
12:00 +25°C° 0.1 mm 2 m/S 714 mmHg 70%
13:00 +26°C° 0.1 mm 2 m/S 714 mmHg 66%
14:00 +26°C° 0.2 mm 2 m/S 714 mmHg 68%
15:00 +25°C° 0.2 mm 2 m/S 714 mmHg 70%
16:00 +25°C° 0.2 mm 2 m/S 714 mmHg 72%
17:00 +24°C° 0.8 mm 2 m/S 714 mmHg 79%
18:00 +23°C° 0.8 mm 2 m/S 714 mmHg 86%
19:00 +20°C° 0.8 mm 2 m/S 713 mmHg 94%
20:00 +19°C° 0.5 mm 2 m/S 714 mmHg 94%
21:00 +18°C° 0.5 mm 2 m/S 714 mmHg 95%
22:00 +17°C° 0.5 mm 2 m/S 714 mmHg 96%
23:00 +16°C° 0.3 mm 2 m/S 714 mmHg 96%
Mehr zeigen

Wir brauchen deine Erlaubnis

Meteoprog und unser Service Anbieter werden persönliche Daten aufbewahren, so wie Cookies, Geräte Bezeichnung oder ähnliche Technologien von deinem Gerät und Prozess, so wie Persönliche Daten Inhalte und Werbungen, genauso wie social Media und den Verkehr zu analysieren.

  • Aufbewahrung und/oder Zugang zu deiner Geräte Informationen.

    Cookies, Geräte Bezeichnung oder andere Informationen, können aufbewahrt oder Zugang zu deinem Gerät erhalten, für den Grund, der oben angegeben wird.

  • Personalisierte Werbung und Inhalte, Messungen, Einblick in das Publikum und Produkt Entwicklung.

    Werbungen und Inhalte können personalisiert werden, basierend auf ein Profil. Mehr Daten können besser personalisierte Werbungen und Inhalte hinzufügen. Werbung und Inhalte können gezeigt und gemessen werden. Einblicke über das Publikum, welche die Werbung gesehen haben und den Inhalt, können abgeleitet werden. So wie Daten können genutzt werden, um es zu verbessern oder die Benutzer Erfahrung zu verbessern das System und die Software.

Wenn du “Ich stimme zu” klickst, erlaubst du uns, die Cookies zu benutzen die Geräte Bezeichnung, den Web oder ähnliche Technologien zu benutzen. Deine Settings, können in deinem Gerät bei deinem Browser geändert werden.

Für den bestimmten Zweck, berechtigten Interessen beruhen darauf, mehr als auf den Inhalt. Du kannst mehr darüber in unseren Privaten und Cookie Politik lesen.